sat.trackr.live / text

‹ back to catalog

STARLINK-37256

NORAD 68569 · 2026-070AD

PAYLOAD ACTIVE UNKNOWN

§ Identity

Operator
Country
US
Launch date
2026-04-02
Launch site
AFETR
Launch vehicle
Mass (kg)
RCS (m²)

Purposes: comms

External: N2YO · Heavens-Above · Gunter

§ Orbital elements

Epoch: 2026-09-20T02:48:36.679680Z

Period
93.85 min
Inclination
53.1573°
Eccentricity
0.0000940
Mean motion
15.34399770 rev/d
Perigee alt
462.1 km
Apogee alt
463.3 km
Semi-major
6,840.8 km
B*
7.7753e-4
RAAN
175.1559°
Arg perigee
73.3727°
Mean anomaly
286.7379°
Rev number
2,638

§ Raw data

STARLINK-372561 68569U 26070AD  26263.11709120  .00025985  00000+0  77753-3 0  99992 68569  53.1573 175.1559 0000940  73.3727 286.7379 15.34399770 26384

JSON: /api/v1/satellites/68569 · /tle

For live sub-satellite position, see the globe view (requires WebGL).

§ Visibility from observer

Set your observer location to see the next 7 days of passes ≥ 10°. The values pass through the URL so the page stays shareable.

No JS? Fill the form by hand. The geolocation button needs JavaScript.